Location: Arrakis Observatory
(44.1122°N, 95.7153°W)
Time: 05:52:22
(UTC-05:00)

Amateur Radio Satellites - All Passes

Search period start: 29 June 2016 05:22
Search period end: 30 June 2016 05:22
Location: Arrakis Observatory, 44.1122°N, 95.7153°W

Satellite Date Start Highest point End Downlink Frequencies (MHz)
Time Altitude Azimuth
AO-7 29 Jun 05:31:20 05:39:47 86° 108° (ESE) 05:48:10 29.400- 29.500
STARS 29 Jun 05:37:14 05:40:58 27° 264° (W) 05:44:43 437.465
PCSat 29 Jun 05:42:40 05:44:11 11° 332° (NNW) 05:45:43 145.827
Cosmos 2499 29 Jun 05:47:08 05:55:15 39° 69° (ENE) 06:02:56 435.465 / 435.565
AIST 2 29 Jun 05:50:49 05:54:56 84° 123° (ESE) 05:59:06 435.215
AIST 1 29 Jun 05:57:45 06:00:48 19° 273° (W) 06:03:51
NOAA 15 29 Jun 06:02:16 06:03:14 10° 87° (E) 06:04:12 137.62
ITAMSAT 1 29 Jun 06:09:06 06:11:57 15° 302° (WNW) 06:14:48 435.822/435.867
GONETS M04 29 Jun 06:13:54 06:22:40 76° 80° (E) 06:31:25
HORYU 2 29 Jun 06:20:28 06:25:00 75° 103° (ESE) 06:29:29 437.375
STRAND 1 29 Jun 06:27:11 06:30:41 19° 60° (ENE) 06:34:12 437.568
CUBESAT XI-V 29 Jun 06:28:59 06:33:26 42° 262° (W) 06:37:54 437.345
AO-85 29 Jun 06:36:11 06:40:46 65° 53° (NE) 06:44:56 145.980
NOAA 18 29 Jun 06:38:15 06:42:15 20° 92° (E) 06:46:13 137.9125
Cubesat XI-IV 29 Jun 06:39:12 06:42:54 19° 91° (E) 06:46:35 437.490
CUSAT 1 29 Jun 06:39:52 06:44:29 18° 86° (E) 06:48:40 437.405
BRITE-PL 29 Jun 06:55:02 06:58:43 30° 96° (E) 07:02:24 437.365/2234.400
DANDE 29 Jun 07:07:45 07:12:34 17° 81° (E) 07:17:10 436.750
PHONESAT 2.4 29 Jun 07:09:29 07:11:28 16° 156° (SSE) 07:13:25 2401.200-2431.200
CUTE-I 29 Jun 07:12:29 07:17:27 37° 97° (E) 07:22:22 437.470
LilacSat-2 29 Jun 07:13:39 07:17:12 33° 97° (E) 07:20:45 437.200
AO-7 29 Jun 07:25:11 07:31:37 26° 309° (NW) 07:38:02 29.400- 29.500
GOMX 1 29 Jun 07:25:22 07:29:04 29° 96° (E) 07:32:52 467.674
AIST 2 29 Jun 07:31:28 07:34:00 15° 323° (NW) 07:36:30 435.215
NOAA 15 29 Jun 07:38:31 07:43:48 84° 104° (ESE) 07:49:03 137.62
Cosmos 2499 29 Jun 07:40:14 07:48:37 51° 271° (W) 07:56:31 435.465 / 435.565
PRISM 29 Jun 07:40:52 07:42:32 12° 61° (ENE) 07:44:12 437.425
HORYU 2 29 Jun 07:58:50 08:00:57 13° 300° (WNW) 08:03:05 437.375
STRAND 1 29 Jun 08:04:16 08:09:21 64° 258° (WSW) 08:14:30 437.568
HO-68 29 Jun 08:10:29 08:15:23 19° 90° (E) 08:20:15 435.675
GONETS M04 29 Jun 08:12:03 08:18:33 24° 281° (W) 08:25:04
ISS 29 Jun 08:17:33 08:19:08 13° 132° (SE) 08:20:42 145.825
NOAA 18 29 Jun 08:17:50 08:23:18 61° 290° (WNW) 08:28:46 137.9125
Cubesat XI-IV 29 Jun 08:18:05 08:23:24 62° 289° (WNW) 08:28:42 437.490
AO-85 29 Jun 08:18:15 08:20:33 14° 253° (WSW) 08:22:45 145.980
CUSAT 1 29 Jun 08:18:16 08:26:02 89° 102° (ESE) 08:32:28 437.405
CANX-2 29 Jun 08:19:58 08:22:31 15° 90° (E) 08:25:03 2200.000
DOVE 4 29 Jun 08:21:55 08:26:11 55° 101° (E) 08:30:38 437.250
BRITE-PL 29 Jun 08:33:49 08:37:08 23° 293° (WNW) 08:40:26 437.365/2234.400
CUTE 1.7 + AOD 2 29 Jun 08:39:14 08:42:33 21° 93° (E) 08:45:49 437.475
SEEDS 29 Jun 08:42:23 08:45:08 17° 91° (E) 08:47:51 437.485
PHONESAT 2.4 29 Jun 08:44:45 08:47:37 37° 171° (S) 08:50:29 2401.200-2431.200
DANDE 29 Jun 08:46:03 08:54:28 77° 97° (E) 09:02:06 436.750
LilacSat-2 29 Jun 08:48:28 08:51:18 20° 294° (WNW) 08:54:09 437.200
CUTE-I 29 Jun 08:52:40 08:57:24 32° 295° (WNW) 09:02:07 437.470
GOMX 1 29 Jun 09:03:38 09:07:07 26° 292° (WNW) 09:10:41 467.674
CUBEBUG 2 29 Jun 09:05:57 09:08:55 17° 91° (E) 09:11:53 437.445
CINEMA 3 29 Jun 09:12:23 09:16:52 57° 100° (E) 09:21:33 145.822/145.860
PRISM 29 Jun 09:13:09 09:17:18 70° 258° (WSW) 09:21:27 437.425
AAUSAT CUBESAT 2 29 Jun 09:19:00 09:22:21 23° 94° (E) 09:25:41 437.432
NOAA 15 29 Jun 09:19:59 09:22:53 15° 302° (WNW) 09:25:46 137.62
ANTELSAT 29 Jun 09:22:23 09:23:27 11° 58° (ENE) 09:24:33 437.575/2403.000
ZACube-1 29 Jun 09:29:47 09:31:58 13° 89° (E) 09:34:08 437.345
M-CUBED/EXP-1 PRIME 29 Jun 09:37:44 09:40:09 15° 99° (E) 09:42:39 437.505
Oscar 11 29 Jun 09:37:52 09:40:33 16° 91° (E) 09:43:13 145.826/435.025
FUNcube-1 29 Jun 09:46:08 09:49:18 18° 92° (E) 09:52:29 145.935
UWE-3 29 Jun 09:50:56 09:55:04 32° 96° (E) 09:59:15 435.000/436.395/437.385
ISS 29 Jun 09:51:52 09:55:08 87° 327° (NNW) 09:58:25 145.825
COMPASS 1 29 Jun 09:53:15 09:57:28 70° 101° (ESE) 10:01:37 437.405
CANX-2 29 Jun 09:54:30 09:58:41 51° 287° (WNW) 10:02:49 2200.000
HO-68 29 Jun 09:56:40 10:03:55 84° 288° (WNW) 10:11:07 435.675
DOVE 4 29 Jun 10:00:54 10:03:32 16° 296° (WNW) 10:06:14 437.250
NOAA 18 29 Jun 10:02:13 10:02:52 10° 308° (NW) 10:03:31 137.9125
CUSAT 1 29 Jun 10:03:39 10:08:37 19° 294° (WNW) 10:13:02 437.405
TIGRISAT 29 Jun 10:10:36 10:14:22 30° 68° (ENE) 10:18:14 435.000
CUTE 1.7 + AOD 2 29 Jun 10:14:33 10:18:29 36° 290° (WNW) 10:22:23 437.475
RS-15 29 Jun 10:14:43 10:19:17 13° 92° (E) 10:23:54 29.354- 29.394
UNISAT 6 29 Jun 10:15:46 10:19:44 36° 69° (ENE) 10:23:48 437.425
SEEDS 29 Jun 10:17:00 10:21:05 45° 288° (WNW) 10:25:06 437.485
PHONESAT 2.4 29 Jun 10:21:04 10:23:57 36° 188° (S) 10:26:49 2401.200-2431.200
AUBIESAT-1 29 Jun 10:30:58 10:34:48 48° 106° (ESE) 10:38:54 437.475
DANDE 29 Jun 10:31:03 10:37:52 27° 294° (WNW) 10:44:08 436.750
HUMSAT D 29 Jun 10:35:57 10:38:25 15° 90° (E) 10:40:53 437.325/437.525
QB50P2 29 Jun 10:40:01 10:41:54 13° 61° (ENE) 10:43:48 145.880/145.840
CUBEBUG 2 29 Jun 10:41:19 10:45:49 56° 287° (WNW) 10:50:26 437.445
DUCHIFAT 1 29 Jun 10:41:41 10:42:52 11° 60° (ENE) 10:44:05 145.980
POLYITAN 1 29 Jun 10:42:35 10:44:32 13° 61° (ENE) 10:46:28 437.675
CINEMA 3 29 Jun 10:50:42 10:53:37 17° 296° (WNW) 10:56:37 145.822/145.860
AAUSAT CUBESAT 2 29 Jun 10:54:10 10:57:53 31° 291° (WNW) 11:01:33 437.432
ANTELSAT 29 Jun 10:55:07 10:59:27 87° 259° (W) 11:03:54 437.575/2403.000
PCSat 29 Jun 10:57:02 11:02:05 37° 49° (NE) 11:07:06 145.827
DELFI C3 29 Jun 10:58:54 11:02:49 52° 100° (E) 11:06:42 145.870
BEESAT 3 29 Jun 11:04:05 11:07:43 33° 48° (NE) 11:11:19 437.485
ZACube-1 29 Jun 11:04:09 11:08:40 68° 286° (WNW) 11:13:14 437.345
M-CUBED/EXP-1 PRIME 29 Jun 11:11:06 11:14:51 48° 292° (WNW) 11:18:52 437.505
Oscar 11 29 Jun 11:12:44 11:16:59 51° 288° (WNW) 11:21:11 145.826/435.025
JAS-2 29 Jun 11:13:56 11:18:02 16° 55° (NE) 11:21:56 435.910
FUNcube-1 29 Jun 11:21:24 11:25:47 48° 288° (WNW) 11:30:10 145.935
UWE-3 29 Jun 11:27:31 11:31:25 28° 292° (WNW) 11:35:23 435.000/436.395/437.385
ISS 29 Jun 11:29:07 11:31:55 25° 347° (NNW) 11:34:42 145.825
YUBILEINY 29 Jun 11:29:09 11:32:10 12° 71° (ENE) 11:35:11 435.215
COMPASS 1 29 Jun 11:30:44 11:32:27 12° 299° (WNW) 11:34:09 437.405
BUGSAT 1 29 Jun 11:32:34 11:35:12 17° 64° (ENE) 11:37:49 437.445
O/OREOS (USA 219) 29 Jun 11:35:34 11:38:01 14° 49° (NE) 11:40:28 437.305
Cosmos 2491 29 Jun 11:35:58 11:44:06 41° 71° (ENE) 11:52:11 435.465 / 435.565
BEESAT 2 29 Jun 11:43:29 11:47:20 45° 50° (NE) 11:51:11 435.950
HO-68 29 Jun 11:45:54 11:50:37 19° 308° (NW) 11:55:19 435.675
TIGRISAT 29 Jun 11:47:27 11:51:04 26° 266° (W) 11:54:47 435.000
UNISAT 6 29 Jun 11:53:12 11:56:34 22° 267° (W) 12:00:01 437.425
NANOSAT C BR1 29 Jun 11:53:39 11:57:47 67° 74° (ENE) 12:01:58 145.865
QB50P1 29 Jun 11:57:06 12:01:17 77° 75° (ENE) 12:05:30 145.935-145.965
PHONESAT 2.4 29 Jun 11:58:09 12:00:06 16° 204° (SSW) 12:02:03 2401.200-2431.200
POPSAT HIP 1 29 Jun 12:00:25 12:04:35 82° 76° (ENE) 12:08:49 437.405
AUBIESAT-1 29 Jun 12:06:27 12:09:01 17° 300° (WNW) 12:11:41 437.475
Oscar 19 29 Jun 12:09:44 12:10:21 10° 55° (NE) 12:10:58 437.125/150
HUMSAT D 29 Jun 12:10:09 12:14:22 54° 287° (WNW) 12:18:34 437.325/437.525
QB50P2 29 Jun 12:13:00 12:17:10 67° 258° (WSW) 12:21:23 145.880/145.840
UKube-1 29 Jun 12:13:28 12:14:08 10° 89° (E) 12:14:48 .
DUCHIFAT 1 29 Jun 12:13:47 12:17:57 78° 257° (WSW) 12:22:09 145.980
ESTCUBE 1 29 Jun 12:14:44 12:18:43 30° 96° (E) 12:22:39 437.505/2401.250
POLYITAN 1 29 Jun 12:15:38 12:19:47 66° 258° (WSW) 12:24:00 437.675
AISAT 29 Jun 12:15:49 12:19:04 20° 93° (E) 12:22:19 437.250
RS-15 29 Jun 12:17:48 12:28:55 63° 115° (ESE) 12:40:39 29.354- 29.394
DX 1 29 Jun 12:32:41 12:36:04 22° 94° (E) 12:39:25 434.975-435.025
AIST 2 29 Jun 12:33:33 12:35:51 14° 36° (NE) 12:38:08 435.215
DELFI C3 29 Jun 12:35:06 12:37:15 14° 297° (WNW) 12:39:24 145.870
PCSat 29 Jun 12:40:31 12:45:28 37° 248° (WSW) 12:50:23 145.827
BEESAT 3 29 Jun 12:41:59 12:45:17 25° 245° (WSW) 12:48:33 437.485
JAS-2 29 Jun 12:54:34 13:02:08 73° 73° (ENE) 13:09:00 435.910
50 SAT 29 Jun 12:59:29 13:03:09 63° 101° (E) 13:06:47 437.505
CUBEBUG 1 29 Jun 12:59:58 13:04:16 61° 101° (ESE) 13:08:32 437.445
ISS 29 Jun 13:06:24 13:09:05 23° 8° (N) 13:11:45 145.825
BUGSAT 1 29 Jun 13:06:26 13:10:16 42° 261° (W) 13:14:06 437.445
VELOX 1 29 Jun 13:10:23 13:14:47 71° 102° (ESE) 13:19:10 145.980
O/OREOS (USA 219) 29 Jun 13:13:30 13:17:59 76° 250° (WSW) 13:22:28 437.305
YUBILEINY 29 Jun 13:18:32 13:27:05 66° 93° (E) 13:35:45 435.215
BEESAT 2 29 Jun 13:22:05 13:24:52 18° 248° (WSW) 13:27:38 435.950
TISAT 1 29 Jun 13:29:03 13:31:01 13° 90° (E) 13:33:00 437.305
NANOSAT C BR1 29 Jun 13:32:40 13:33:58 11° 271° (W) 13:35:17 145.865
Cosmos 2491 29 Jun 13:32:52 13:41:03 47° 272° (W) 13:49:13 435.465 / 435.565
Oscar 19 29 Jun 13:43:37 13:48:42 69° 74° (ENE) 13:53:50 437.125/150
SPROUT 29 Jun 13:46:04 13:50:23 79° 104° (ESE) 13:54:40 437.525
UKube-1 29 Jun 13:46:23 13:50:42 76° 287° (WNW) 13:55:00 .
ESTCUBE 1 29 Jun 13:51:35 13:55:28 28° 293° (WNW) 13:59:17 437.505/2401.250
AISAT 29 Jun 13:51:36 13:55:43 41° 290° (WNW) 13:59:50 437.250
Cosmos 2504 29 Jun 13:52:20 13:59:31 35° 84° (E) 14:07:06 435.465 / 435.565
Gurwin Techsat 1B 29 Jun 14:08:09 14:13:17 52° 70° (ENE) 14:18:26 435.225
DX 1 29 Jun 14:08:22 14:12:21 36° 291° (WNW) 14:16:19 434.975-435.025
ITAMSAT 1 29 Jun 14:09:41 14:13:34 22° 61° (ENE) 14:17:28 435.822/435.867
AIST 2 29 Jun 14:10:48 14:14:58 85° 52° (NE) 14:19:08 435.215
SWISSCUBE 29 Jun 14:23:15 14:24:47 11° 88° (E) 14:26:18 437.505
RS-15 29 Jun 14:30:45 14:41:53 49° 321° (NW) 14:53:39 29.354- 29.394
50 SAT 29 Jun 14:35:28 14:36:19 11° 298° (WNW) 14:37:09 437.505
CUBEBUG 1 29 Jun 14:37:43 14:40:04 15° 298° (WNW) 14:42:25 437.445
AO-7 29 Jun 14:40:43 14:47:51 33° 55° (NE) 14:55:00 29.400- 29.500
JAS-2 29 Jun 14:41:46 14:47:34 24° 268° (W) 14:53:02 435.910
ISS 29 Jun 14:42:45 14:46:00 58° 27° (NNE) 14:49:13 145.825
BEESAT 29 Jun 14:46:55 14:50:14 18° 92° (E) 14:53:32 436.000
ITUPSAT 1 29 Jun 14:48:35 14:51:57 19° 92° (E) 14:55:19 437.325
VELOX 1 29 Jun 14:48:37 14:50:41 13° 300° (WNW) 14:52:45 145.980
TISAT 1 29 Jun 15:02:54 15:07:03 59° 287° (WNW) 15:11:11 437.305
YUBILEINY 29 Jun 15:17:10 15:24:33 30° 294° (WNW) 15:32:03 435.215
SO-50 29 Jun 15:21:37 15:24:55 18° 110° (ESE) 15:28:13 436.795
SPROUT 29 Jun 15:24:16 15:25:42 11° 300° (WNW) 15:27:08 437.525
Oscar 19 29 Jun 15:25:30 15:28:32 16° 270° (W) 15:31:33 437.125/150
Cosmos 2504 29 Jun 15:44:31 15:52:30 54° 285° (WNW) 16:01:03 435.465 / 435.565
ITAMSAT 1 29 Jun 15:47:31 15:52:37 56° 259° (W) 15:57:48 435.822/435.867
Gurwin Techsat 1B 29 Jun 15:49:28 15:53:31 22° 268° (W) 15:57:35 435.225
SWISSCUBE 29 Jun 15:58:21 16:03:11 82° 287° (WNW) 16:07:57 437.505
ISS 29 Jun 16:19:41 16:22:12 20° 224° (SW) 16:24:42 145.825
BEESAT 29 Jun 16:23:40 16:28:19 52° 289° (WNW) 16:32:58 436.000
ITUPSAT 1 29 Jun 16:25:25 16:30:06 51° 289° (WNW) 16:34:43 437.325
AO-7 29 Jun 16:31:49 16:40:05 66° 255° (WSW) 16:48:26 29.400- 29.500
RS-15 29 Jun 16:48:26 16:58:19 28° 354° (N) 17:08:27 29.354- 29.394
AIST 1 29 Jun 16:51:05 16:54:15 20° 87° (E) 16:57:26
MOZHAYETS 4 29 Jun 16:53:11 16:57:35 40° 98° (E) 17:01:55
KKS-1 29 Jun 16:55:06 16:59:22 44° 99° (E) 17:03:37 437.445
SO-50 29 Jun 17:00:04 17:04:56 65° 308° (NW) 17:09:48 436.795
CUTE-I 29 Jun 17:00:31 17:01:53 11° 54° (NE) 17:03:15 437.470
HORYU 2 29 Jun 17:19:39 17:24:05 82° 74° (ENE) 17:28:33 437.375
NOAA 15 29 Jun 17:22:01 17:26:02 23° 62° (ENE) 17:30:04 137.62
STARS 29 Jun 17:24:15 17:28:30 45° 99° (E) 17:32:44 437.465
GONETS M04 29 Jun 17:24:36 17:29:37 17° 75° (ENE) 17:34:35
SWISSCUBE 29 Jun 17:38:48 17:40:11 11° 303° (WNW) 17:41:34 437.505
Cosmos 2504 29 Jun 17:45:28 17:48:21 12° 310° (NW) 17:51:17 435.465 / 435.565
LilacSat-2 29 Jun 17:57:34 18:00:28 21° 67° (ENE) 18:03:23 437.200
Cubesat XI-IV 29 Jun 18:02:15 18:07:04 36° 66° (ENE) 18:11:56 437.490
NOAA 18 29 Jun 18:05:36 18:10:44 43° 67° (ENE) 18:15:55 137.9125
BRITE-PL 29 Jun 18:06:43 18:11:29 46° 72° (ENE) 18:15:53 437.365/2234.400
CUBESAT XI-V 29 Jun 18:23:48 18:28:13 42° 98° (E) 18:32:34 437.345
Cosmos 2499 29 Jun 18:25:42 18:32:35 29° 81° (E) 18:39:45 435.465 / 435.565
AIST 1 29 Jun 18:27:38 18:31:37 35° 284° (WNW) 18:35:35
MOZHAYETS 4 29 Jun 18:30:51 18:34:30 23° 295° (WNW) 18:38:08
AO-7 29 Jun 18:31:28 18:34:26 12° 275° (W) 18:37:25 29.400- 29.500
KKS-1 29 Jun 18:32:23 18:35:39 20° 296° (WNW) 18:38:54 437.445
GOMX 1 29 Jun 18:34:56 18:39:09 38° 71° (ENE) 18:43:10 467.674
CUTE-I 29 Jun 18:35:37 18:40:56 69° 72° (ENE) 18:46:18 437.470
HO-68 29 Jun 18:41:56 18:46:38 19° 52° (NE) 18:51:21 435.675
SO-50 29 Jun 18:43:36 18:46:21 15° 328° (NNW) 18:49:06 436.795
CUSAT 1 29 Jun 18:54:06 18:57:45 54° 76° (ENE) 19:00:39 437.405
NOAA 15 29 Jun 19:00:16 19:05:26 54° 259° (W) 19:10:38 137.62
STARS 29 Jun 19:01:24 19:04:32 19° 296° (WNW) 19:07:40 437.465
RS-15 29 Jun 19:04:27 19:15:34 37° 28° (NNE) 19:26:44 29.354- 29.394
CANX-2 29 Jun 19:14:43 19:17:03 14° 62° (ENE) 19:19:24 2200.000
GONETS M04 29 Jun 19:16:17 19:24:59 82° 96° (E) 19:33:43
DANDE 29 Jun 19:27:19 19:32:15 52° 74° (ENE) 19:35:54 436.750
DOVE 4 29 Jun 19:29:04 19:33:19 64° 74° (ENE) 19:37:26 437.250
LilacSat-2 29 Jun 19:31:17 19:34:37 29° 264° (W) 19:37:59 437.200
CUTE 1.7 + AOD 2 29 Jun 19:33:37 19:36:42 20° 65° (ENE) 19:39:47 437.475
SEEDS 29 Jun 19:36:03 19:38:32 15° 63° (ENE) 19:41:01 437.485
Cubesat XI-IV 29 Jun 19:42:22 19:47:08 33° 264° (W) 19:51:57 437.490
BRITE-PL 29 Jun 19:46:27 19:50:07 20° 267° (W) 19:53:38 437.365/2234.400
NOAA 18 29 Jun 19:46:55 19:51:32 28° 265° (W) 19:56:13 137.9125
CUBESAT XI-V 29 Jun 20:01:48 20:05:19 22° 295° (WNW) 20:08:49 437.345
CUBEBUG 2 29 Jun 20:06:19 20:08:48 15° 62° (ENE) 20:11:19 437.445
AAUSAT CUBESAT 2 29 Jun 20:10:57 20:14:01 20° 65° (ENE) 20:17:04 437.432
STRAND 1 29 Jun 20:13:21 20:18:10 39° 97° (E) 20:22:58 437.568
GOMX 1 29 Jun 20:13:57 20:17:22 21° 266° (W) 20:20:41 467.674
CINEMA 3 29 Jun 20:15:45 20:19:48 58° 74° (ENE) 20:23:56 145.822/145.860
Cosmos 2499 29 Jun 20:16:39 20:24:58 66° 282° (WNW) 20:33:49 435.465 / 435.565
CUTE-I 29 Jun 20:18:10 20:21:29 17° 270° (W) 20:24:51 437.470
HO-68 29 Jun 20:26:11 20:33:21 84° 72° (ENE) 20:40:34 435.675
M-CUBED/EXP-1 PRIME 29 Jun 20:26:13 20:28:40 20° 62° (ENE) 20:31:09 437.505
ZACube-1 29 Jun 20:27:57 20:29:43 12° 60° (ENE) 20:31:29 437.345
Oscar 11 29 Jun 20:34:25 20:37:03 16° 63° (ENE) 20:39:42 145.826/435.025
FUNcube-1 29 Jun 20:43:42 20:46:25 17° 63° (ENE) 20:49:10 145.935
COMPASS 1 29 Jun 20:45:02 20:49:10 55° 73° (ENE) 20:53:19 437.405
CANX-2 29 Jun 20:48:11 20:52:25 61° 259° (W) 20:56:42 2200.000
UWE-3 29 Jun 20:49:39 20:53:17 29° 68° (ENE) 20:57:01 435.000/436.395/437.385
AO-85 29 Jun 20:52:19 20:56:00 19° 110° (ESE) 20:59:36 145.980
PRISM 29 Jun 20:54:44 20:56:50 14° 91° (E) 20:58:55 437.425
CUTE 1.7 + AOD 2 29 Jun 21:08:11 21:12:14 42° 262° (W) 21:16:21 437.475
SEEDS 29 Jun 21:09:36 21:13:47 56° 260° (W) 21:18:00 437.485
DOVE 4 29 Jun 21:10:01 21:11:26 11° 270° (W) 21:12:51 437.250
DANDE 29 Jun 21:12:09 21:14:02 12° 282° (WNW) 21:15:44 436.750
GONETS M04 29 Jun 21:16:19 21:22:54 23° 298° (WNW) 21:29:33
RS-15 29 Jun 21:17:33 21:29:58 87° 56° (NE) 21:42:17 29.354- 29.394
AUBIESAT-1 29 Jun 21:19:10 21:22:26 78° 71° (ENE) 21:25:48 437.475
HUMSAT D 29 Jun 21:29:26 21:31:28 13° 61° (ENE) 21:33:28 437.325/437.525
CUBEBUG 2 29 Jun 21:40:54 21:44:59 54° 261° (W) 21:49:12 437.445
AAUSAT CUBESAT 2 29 Jun 21:45:17 21:49:13 39° 262° (W) 21:53:12 437.432
DELFI C3 29 Jun 21:46:03 21:49:47 37° 71° (ENE) 21:53:31 145.870
STRAND 1 29 Jun 21:52:49 21:57:12 29° 295° (WNW) 22:01:33 437.568
CINEMA 3 29 Jun 21:55:40 21:57:23 12° 271° (W) 21:59:07 145.822/145.860
M-CUBED/EXP-1 PRIME 29 Jun 22:00:32 22:03:10 23° 259° (WSW) 22:05:51 437.505
ZACube-1 29 Jun 22:01:11 22:05:22 72° 257° (WSW) 22:09:43 437.345
Oscar 11 29 Jun 22:08:29 22:12:45 55° 260° (W) 22:17:03 145.826/435.025
Cosmos 2499 29 Jun 22:15:26 22:20:07 15° 306° (NW) 22:24:56 435.465 / 435.565
HO-68 29 Jun 22:17:08 22:21:54 19° 271° (W) 22:26:41 435.675
FUNcube-1 29 Jun 22:18:10 22:22:15 49° 261° (W) 22:26:28 145.935
COMPASS 1 29 Jun 22:22:53 22:25:04 14° 270° (W) 22:27:15 437.405
UWE-3 29 Jun 22:26:12 22:29:44 26° 266° (W) 22:33:21 435.000/436.395/437.385
PRISM 29 Jun 22:28:30 22:32:29 52° 287° (WNW) 22:36:25 437.425
AO-85 29 Jun 22:30:36 22:36:01 73° 306° (NW) 22:41:14 145.980
ANTELSAT 29 Jun 22:45:56 22:49:14 19° 92° (E) 22:52:32 437.575/2403.000
HUMSAT D 29 Jun 23:02:23 23:06:32 65° 259° (W) 23:10:46 437.325/437.525
UKube-1 29 Jun 23:09:07 23:10:51 12° 60° (ENE) 23:12:36 .
AISAT 29 Jun 23:14:42 23:18:07 22° 65° (ENE) 23:21:31 437.250
ESTCUBE 1 29 Jun 23:15:31 23:19:36 34° 69° (ENE) 23:23:42 437.505/2401.250
DELFI C3 29 Jun 23:21:55 23:24:46 19° 267° (W) 23:27:39 145.870
YUBILEINY 29 Jun 23:26:57 23:34:54 35° 69° (ENE) 23:42:47 435.215
DX 1 29 Jun 23:29:39 23:33:08 24° 65° (ENE) 23:36:37 434.975-435.025
RS-15 29 Jun 23:31:21 23:41:00 29° 259° (WSW) 23:50:36 29.354- 29.394
TIGRISAT 29 Jun 23:36:11 23:40:46 56° 100° (E) 23:45:23 435.000
50 SAT 29 Jun 23:38:39 23:42:03 35° 71° (ENE) 23:45:28 437.505
UNISAT 6 29 Jun 23:41:47 23:46:26 68° 102° (ESE) 23:51:06 437.425
QB50P1 29 Jun 23:42:37 23:43:54 11° 89° (E) 23:45:12 145.935-145.965
Cosmos 2504 29 Jun 23:43:34 23:48:29 16° 54° (NE) 23:53:18 435.465 / 435.565
POPSAT HIP 1 29 Jun 23:45:38 23:47:19 12° 90° (E) 23:48:59 437.405
SO-50 29 Jun 23:50:17 23:54:20 27° 42° (NE) 23:58:15 436.795
CUBEBUG 1 29 Jun 23:57:03 00:01:21 60° 73° (ENE) 00:05:38 437.445
QB50P2 29 Jun 23:57:17 00:00:12 18° 92° (E) 00:03:05 145.880/145.840
DUCHIFAT 1 29 Jun 23:57:40 00:00:06 15° 91° (E) 00:02:32 145.980
POLYITAN 1 29 Jun 23:59:52 00:02:50 18° 93° (E) 00:05:47 437.675
VELOX 1 30 Jun 00:08:48 00:13:12 75° 74° (ENE) 00:17:37 145.980
AO-85 30 Jun 00:13:53 00:17:22 17° 326° (NW) 00:20:43 145.980
ANTELSAT 30 Jun 00:21:41 00:26:11 49° 288° (WNW) 00:30:43 437.575/2403.000
TISAT 1 30 Jun 00:22:46 00:24:39 13° 61° (ENE) 00:26:31 437.305
Cosmos 2491 30 Jun 00:39:05 00:47:11 44° 87° (E) 00:55:17 435.465 / 435.565
SPROUT 30 Jun 00:40:45 00:44:59 71° 74° (ENE) 00:49:14 437.525
UKube-1 30 Jun 00:42:00 00:46:18 75° 257° (WSW) 00:50:38 .
BUGSAT 1 30 Jun 00:46:51 00:50:07 22° 95° (E) 00:53:24 437.445
AISAT 30 Jun 00:50:16 00:54:23 38° 262° (W) 00:58:29 437.250
ESTCUBE 1 30 Jun 00:52:40 00:56:27 26° 265° (W) 01:00:15 437.505/2401.250
DX 1 30 Jun 01:05:11 01:09:09 34° 262° (W) 01:13:09 434.975-435.025
NANOSAT C BR1 30 Jun 01:12:00 01:16:16 81° 286° (WNW) 01:20:31 145.865
50 SAT 30 Jun 01:13:22 01:15:51 17° 267° (W) 01:18:20 437.505
TIGRISAT 30 Jun 01:13:56 01:17:02 18° 297° (WNW) 01:20:11 435.000
QB50P1 30 Jun 01:15:54 01:20:09 70° 286° (WNW) 01:24:23 145.935-145.965
POPSAT HIP 1 30 Jun 01:19:17 01:23:31 65° 286° (WNW) 01:27:44 437.405
UNISAT 6 30 Jun 01:19:56 01:22:37 15° 298° (WNW) 01:25:18 437.425
YUBILEINY 30 Jun 01:23:32 01:32:05 56° 270° (W) 01:40:37 435.215
SWISSCUBE 30 Jun 01:30:26 01:33:33 18° 61° (ENE) 01:36:41 437.505
SO-50 30 Jun 01:30:33 01:35:01 46° 242° (WSW) 01:39:19 436.795
DUCHIFAT 1 30 Jun 01:31:58 01:36:06 52° 287° (WNW) 01:40:13 145.980
QB50P2 30 Jun 01:32:08 01:36:13 44° 289° (WNW) 01:40:16 145.880/145.840
POLYITAN 1 30 Jun 01:34:46 01:38:50 43° 289° (WNW) 01:42:53 437.675
Cosmos 2504 30 Jun 01:34:58 01:43:51 67° 78° (ENE) 01:52:20 435.465 / 435.565
CUBEBUG 1 30 Jun 01:35:54 01:38:01 13° 270° (W) 01:40:09 437.445
PCSat 30 Jun 01:41:12 01:45:22 23° 107° (ESE) 01:49:33 145.827
JAS-2 30 Jun 01:48:34 01:54:03 50° 99° (E) 01:59:06 435.910
VELOX 1 30 Jun 01:49:02 01:50:12 11° 271° (W) 01:51:21 145.980
Oscar 19 30 Jun 01:54:23 01:58:15 21° 92° (E) 02:02:05 437.125/150
BEESAT 30 Jun 01:54:32 01:58:28 26° 65° (ENE) 02:02:26 436.000
TISAT 1 30 Jun 01:55:38 01:59:45 66° 258° (WSW) 02:03:56 437.305
ITUPSAT 1 30 Jun 01:56:32 02:00:32 27° 65° (ENE) 02:04:33 437.325
SPROUT 30 Jun 02:20:23 02:21:25 11° 271° (W) 02:22:28 437.525
BUGSAT 1 30 Jun 02:21:53 02:25:32 32° 291° (WNW) 02:29:13 437.445
Gurwin Techsat 1B 30 Jun 02:23:47 02:27:22 18° 91° (E) 02:30:56 435.225
BEESAT 3 30 Jun 02:33:23 02:36:55 33° 117° (ESE) 02:40:30 437.485
Cosmos 2491 30 Jun 02:35:46 02:44:01 44° 288° (WNW) 02:52:17 435.465 / 435.565
SWISSCUBE 30 Jun 03:06:08 03:10:52 61° 259° (W) 03:15:39 437.505
BEESAT 2 30 Jun 03:14:03 03:17:52 50° 120° (ESE) 03:21:45 435.950
PCSat 30 Jun 03:23:02 03:28:22 56° 306° (NW) 03:33:43 145.827
O/OREOS (USA 219) 30 Jun 03:27:00 03:31:30 86° 293° (WNW) 03:36:00 437.305
Cosmos 2504 30 Jun 03:29:18 03:36:31 29° 279° (W) 03:43:31 435.465 / 435.565
BEESAT 30 Jun 03:31:39 03:36:05 38° 262° (W) 03:40:33 436.000
Oscar 19 30 Jun 03:32:54 03:37:51 50° 290° (WNW) 03:42:47 437.125/150
ITUPSAT 1 30 Jun 03:33:46 03:38:12 37° 262° (W) 03:42:41 437.325
JAS-2 30 Jun 03:34:23 03:38:45 23° 300° (WNW) 03:42:51 435.910
KKS-1 30 Jun 03:54:23 03:58:38 48° 71° (ENE) 04:02:55 437.445
MOZHAYETS 4 30 Jun 03:56:13 04:00:37 45° 71° (ENE) 04:05:04
ITAMSAT 1 30 Jun 03:58:45 04:03:49 46° 99° (E) 04:08:48 435.822/435.867
Gurwin Techsat 1B 30 Jun 04:02:29 04:07:45 63° 288° (WNW) 04:12:59 435.225
BEESAT 3 30 Jun 04:11:17 04:14:39 26° 315° (NW) 04:18:02 437.485
AIST 2 30 Jun 04:12:15 04:13:45 12° 108° (ESE) 04:15:15 435.215
Cosmos 2499 30 Jun 04:16:22 04:19:26 12° 50° (NE) 04:22:26 435.465 / 435.565
STARS 30 Jun 04:22:08 04:26:19 48° 72° (ENE) 04:30:32 437.465
AO-7 30 Jun 04:31:49 04:39:36 40° 98° (E) 04:47:17 29.400- 29.500
AIST 1 30 Jun 04:32:33 04:36:47 61° 80° (E) 04:40:59
BEESAT 2 30 Jun 04:52:58 04:55:59 20° 318° (NW) 04:59:00 435.950
O/OREOS (USA 219) 30 Jun 05:09:54 05:11:38 12° 313° (NW) 05:13:22 437.305
PCSat 30 Jun 05:10:22 05:13:00 13° 328° (NNW) 05:15:38 145.827
HORYU 2 30 Jun 05:10:35 05:12:58 14° 90° (E) 05:15:20 437.375
